"read_dt","SO2 (ppb)","flags","PMT voltage (V)","lamp voltage (V)","lamp intensity (Hz)","internal temp (C)","react chamber temp (C)","sample flow (l/min)","pres (mmHg)","SO2 bkg (ppb)","SO2 coefficient"
2016-09-21 00:00:00,1547E-3,5C000000,-0724,0826,12311,027.3,045.4,0.453,735.8,01.18,0.508
2016-09-21 00:01:00,1526E-3,5C000000,-0724,0826,12224,027.3,045.4,0.453,735.8,01.18,0.508
2016-09-21 00:02:00,1621E-3,5C000000,-0724,0825,12181,027.3,045.5,0.453,735.8,01.18,0.508
2016-09-21 00:03:00,1494E-3,5C000000,-0724,0826,12234,027.3,045.5,0.453,735.8,01.18,0.508
2016-09-21 00:04:00,1698E-3,5C000000,-0724,0826,12202,027.3,045.4,0.453,735.7,01.18,0.508
2016-09-21 00:05:00,1637E-3,5C000000,-0724,0826,12364,027.3,045.4,0.453,735.7,01.18,0.508
2016-09-21 00:06:00,1617E-3,5C000000,-0724,0825,12297,027.3,045.5,0.453,735.8,01.18,0.508
2016-09-21 00:07:00,1559E-3,5C000000,-0724,0826,12291,027.3,045.4,0.453,735.8,01.18,0.508
2016-09-21 00:08:00,1671E-3,5C000000,-0724,0826,12226,027.3,045.4,0.453,735.8,01.18,0.508
2016-09-21 00:09:00,1615E-3,5C000000,-0724,0826,12223,027.3,045.4,0.453,735.8,01.18,0.508
2016-09-21 00:10:00,1668E-3,5C000000,-0724,0826,12251,027.3,045.4,0.453,735.9,01.18,0.508
2016-09-21 00:11:00,1578E-3,5C000000,-0724,0826,12290,027.3,045.5,0.453,735.8,01.18,0.508
2016-09-21 00:12:00,1485E-3,5C000000,-0724,0825,12321,027.3,045.5,0.453,735.8,01.18,0.508
2016-09-21 00:13:00,1601E-3,5C000000,-0724,0825,12218,027.3,045.5,0.453,735.8,01.18,0.508
2016-09-21 00:14:00,1687E-3,5C000000,-0724,0826,12163,027.3,045.5,0.453,735.9,01.18,0.508
2016-09-21 00:15:00,1607E-3,5C000000,-0724,0825,12303,027.3,045.5,0.453,735.9,01.18,0.508
2016-09-21 00:16:00,1663E-3,5C000000,-0724,0825,12152,027.3,045.5,0.453,735.8,01.18,0.508
2016-09-21 00:17:00,1659E-3,5C000000,-0724,0826,12109,027.3,045.5,0.453,735.8,01.18,0.508
2016-09-21 00:18:00,1626E-3,5C000000,-0724,0826,12232,027.3,045.5,0.453,735.8,01.18,0.508
2016-09-21 00:19:00,1579E-3,5C000000,-0724,0826,12223,027.3,045.5,0.453,735.8,01.18,0.508
2016-09-21 00:20:00,1851E-3,5C000000,-0724,0826,12236,027.4,045.5,0.453,735.7,01.18,0.508
2016-09-21 00:21:00,1465E-3,5C000000,-0724,0825,12244,027.4,045.4,0.453,735.7,01.18,0.508
2016-09-21 00:22:00,1590E-3,5C000000,-0724,0827,12081,027.4,045.4,0.453,735.8,01.18,0.508
2016-09-21 00:23:00,1691E-3,5C000000,-0724,0826,12210,027.4,045.4,0.453,735.8,01.18,0.508
2016-09-21 00:24:00,1636E-3,5C000000,-0724,0826,12317,027.4,045.4,0.453,735.7,01.18,0.508
2016-09-21 00:25:00,1484E-3,5C000000,-0724,0825,12184,027.4,045.4,0.453,735.8,01.18,0.508
2016-09-21 00:26:00,1536E-3,5C000000,-0724,0826,12248,027.4,045.4,0.453,735.8,01.18,0.508
2016-09-21 00:27:00,1601E-3,5C000000,-0724,0826,12233,027.4,045.4,0.453,735.8,01.18,0.508
2016-09-21 00:28:00,1544E-3,5C000000,-0724,0826,12255,027.4,045.4,0.453,735.8,01.18,0.508
2016-09-21 00:29:00,1643E-3,5C000000,-0724,0826,12186,027.4,045.5,0.453,735.8,01.18,0.508
2016-09-21 00:30:00,1578E-3,5C000000,-0724,0826,12154,027.4,045.5,0.453,735.6,01.18,0.508
2016-09-21 00:31:00,1623E-3,5C000000,-0724,0826,12119,027.4,045.4,0.452,735.7,01.18,0.508
2016-09-21 00:32:00,1637E-3,5C000000,-0724,0827,12206,027.4,045.4,0.453,735.6,01.18,0.508
2016-09-21 00:33:00,1624E-3,5C000000,-0724,0826,12265,027.4,045.4,0.453,735.6,01.18,0.508
2016-09-21 00:34:00,1515E-3,5C000000,-0724,0825,12042,027.4,045.4,0.452,735.6,01.18,0.508
2016-09-21 00:35:00,1631E-3,5C000000,-0724,0826,12383,027.4,045.5,0.453,735.7,01.18,0.508
2016-09-21 00:36:00,1670E-3,5C000000,-0724,0826,12189,027.4,045.4,0.453,735.7,01.18,0.508
2016-09-21 00:37:00,1657E-3,5C000000,-0724,0825,12261,027.4,045.4,0.452,735.6,01.18,0.508
2016-09-21 00:38:00,1606E-3,5C000000,-0724,0825,12227,027.4,045.4,0.453,735.7,01.18,0.508
2016-09-21 00:39:00,1582E-3,5C000000,-0724,0826,12180,027.4,045.5,0.453,735.7,01.18,0.508
2016-09-21 00:40:00,1575E-3,5C000000,-0724,0826,12243,027.4,045.4,0.452,735.5,01.18,0.508
2016-09-21 00:41:00,1613E-3,5C000000,-0724,0826,12263,027.5,045.4,0.453,735.6,01.18,0.508
2016-09-21 00:42:00,1643E-3,5C000000,-0724,0826,12292,027.5,045.4,0.453,735.6,01.18,0.508
2016-09-21 00:43:00,1585E-3,5C000000,-0724,0826,12237,027.5,045.4,0.452,735.6,01.18,0.508
2016-09-21 00:44:00,1504E-3,5C000000,-0724,0826,12168,027.5,045.4,0.452,735.6,01.18,0.508
2016-09-21 00:45:00,1645E-3,5C000000,-0724,0825,12184,027.5,045.4,0.453,735.5,01.18,0.508
2016-09-21 00:46:00,1546E-3,5C000000,-0724,0826,12194,027.5,045.4,0.452,735.5,01.18,0.508
2016-09-21 00:47:00,1662E-3,5C000000,-0724,0826,12190,027.5,045.4,0.452,735.5,01.18,0.508
2016-09-21 00:48:00,1518E-3,5C000000,-0724,0826,12262,027.5,045.4,0.453,735.5,01.18,0.508
2016-09-21 00:49:00,1619E-3,5C000000,-0724,0826,12146,027.5,045.4,0.452,735.6,01.18,0.508
2016-09-21 00:50:00,1633E-3,5C000000,-0724,0826,12254,027.5,045.4,0.452,735.6,01.18,0.508
2016-09-21 00:51:00,1668E-3,5C000000,-0724,0826,12142,027.5,045.5,0.453,735.5,01.18,0.508
2016-09-21 00:52:00,1662E-3,5C000000,-0724,0826,12269,027.5,045.5,0.453,735.5,01.18,0.508
2016-09-21 00:53:00,1629E-3,5C000000,-0724,0826,12067,027.5,045.5,0.452,735.5,01.18,0.508
2016-09-21 00:54:00,1660E-3,5C000000,-0724,0826,12167,027.5,045.4,0.453,735.6,01.18,0.508
2016-09-21 00:55:00,1554E-3,5C000000,-0724,0825,12198,027.5,045.4,0.453,735.5,01.18,0.508
2016-09-21 00:56:00,1705E-3,5C000000,-0724,0826,12236,027.5,045.4,0.452,735.5,01.18,0.508
2016-09-21 00:57:00,1617E-3,5C000000,-0724,0825,12086,027.5,045.4,0.453,735.5,01.18,0.508
2016-09-21 00:58:00,1454E-3,5C000000,-0724,0827,12456,027.5,045.4,0.453,735.5,01.18,0.508
2016-09-21 00:59:00,1635E-3,5C000000,-0724,0825,12272,027.5,045.4,0.452,735.6,01.18,0.508
2016-09-21 01:00:00,1749E-3,5C000000,-0724,0825,12151,027.5,045.5,0.453,735.5,01.18,0.508
2016-09-21 01:01:00,1620E-3,5C000000,-0724,0827,12095,027.5,045.5,0.453,735.6,01.18,0.508
2016-09-21 01:02:00,1650E-3,5C000000,-0724,0826,12153,027.6,045.4,0.452,735.6,01.18,0.508
2016-09-21 01:03:00,1509E-3,5C000000,-0724,0825,12231,027.6,045.4,0.453,735.6,01.18,0.508
2016-09-21 01:04:00,1668E-3,5C000000,-0724,0827,12120,027.6,045.4,0.453,735.6,01.18,0.508
2016-09-21 01:05:00,1687E-3,5C000000,-0724,0826,12285,027.6,045.4,0.452,735.5,01.18,0.508
2016-09-21 01:06:00,1611E-3,5C000000,-0724,0825,12289,027.6,045.4,0.452,735.6,01.18,0.508
2016-09-21 01:07:00,1589E-3,5C000000,-0724,0826,12361,027.6,045.5,0.453,735.6,01.18,0.508
2016-09-21 01:08:00,1456E-3,5C000000,-0724,0826,12316,027.6,045.5,0.452,735.6,01.18,0.508
2016-09-21 01:09:00,1638E-3,5C000000,-0724,0826,12209,027.6,045.4,0.452,735.6,01.18,0.508
2016-09-21 01:10:00,1618E-3,5C000000,-0724,0825,12228,027.6,045.4,0.453,735.6,01.18,0.508
2016-09-21 01:11:00,1647E-3,5C000000,-0724,0825,12180,027.6,045.5,0.452,735.6,01.18,0.508
2016-09-21 01:12:00,1555E-3,5C000000,-0724,0826,12225,027.6,045.5,0.452,735.6,01.18,0.508
2016-09-21 01:13:00,1694E-3,5C000000,-0724,0825,12259,027.6,045.5,0.453,735.6,01.18,0.508
2016-09-21 01:14:00,1637E-3,5C000000,-0724,0826,12235,027.6,045.4,0.453,735.5,01.18,0.508
2016-09-21 01:15:00,1784E-3,5C000000,-0724,0825,12248,027.6,045.4,0.452,735.6,01.18,0.508
2016-09-21 01:16:00,1582E-3,5C000000,-0724,0825,12355,027.6,045.4,0.452,735.6,01.18,0.508
2016-09-21 01:17:00,1577E-3,5C000000,-0724,0827,12409,027.6,045.4,0.453,735.5,01.18,0.508
2016-09-21 01:18:00,1674E-3,5C000000,-0724,0826,12284,027.6,045.5,0.452,735.6,01.18,0.508
2016-09-21 01:19:00,1681E-3,5C000000,-0724,0825,12090,027.6,045.5,0.452,735.6,01.18,0.508
2016-09-21 01:20:00,1703E-3,5C000000,-0724,0825,12222,027.6,045.5,0.453,735.6,01.18,0.508
2016-09-21 01:21:00,1555E-3,5C000000,-0724,0825,12259,027.6,045.4,0.452,735.6,01.18,0.508
2016-09-21 01:22:00,1509E-3,5C000000,-0724,0825,12080,027.6,045.4,0.452,735.5,01.18,0.508
2016-09-21 01:23:00,1653E-3,5C000000,-0724,0825,12150,027.6,045.5,0.453,735.5,01.18,0.508
2016-09-21 01:24:00,1441E-3,5C000000,-0724,0825,12184,027.7,045.4,0.452,735.5,01.18,0.508
2016-09-21 01:25:00,1637E-3,5C000000,-0724,0825,12314,027.7,045.5,0.452,735.6,01.18,0.508
2016-09-21 01:26:00,1637E-3,5C000000,-0724,0826,12302,027.7,045.5,0.453,735.6,01.18,0.508
2016-09-21 01:27:00,1668E-3,5C000000,-0724,0826,12197,027.7,045.5,0.453,735.6,01.18,0.508
2016-09-21 01:28:00,1580E-3,5C000000,-0724,0826,12191,027.7,045.5,0.452,735.6,01.18,0.508
2016-09-21 01:29:00,1544E-3,5C000000,-0724,0825,12253,027.7,045.5,0.452,735.5,01.18,0.508
2016-09-21 01:30:00,1641E-3,5C000000,-0724,0826,12255,027.7,045.5,0.453,735.5,01.18,0.508
2016-09-21 01:31:00,1654E-3,5C000000,-0724,0826,12331,027.7,045.5,0.452,735.5,01.18,0.508
2016-09-21 01:32:00,1605E-3,5C000000,-0724,0826,12182,027.7,045.4,0.452,735.4,01.18,0.508
2016-09-21 01:33:00,1644E-3,5C000000,-0724,0825,12175,027.7,045.5,0.453,735.4,01.18,0.508
2016-09-21 01:34:00,1662E-3,5C000000,-0724,0826,12077,027.7,045.4,0.452,735.4,01.18,0.508
2016-09-21 01:35:00,1631E-3,5C000000,-0724,0826,12226,027.7,045.5,0.452,735.5,01.18,0.508
2016-09-21 01:36:00,1522E-3,5C000000,-0724,0826,12261,027.7,045.5,0.452,735.5,01.18,0.508
2016-09-21 01:37:00,1595E-3,5C000000,-0724,0826,12171,027.7,045.5,0.452,735.4,01.18,0.508
2016-09-21 01:38:00,1599E-3,5C000000,-0724,0826,12193,027.7,045.5,0.452,735.4,01.18,0.508
2016-09-21 01:39:00,1700E-3,5C000000,-0724,0825,12312,027.7,045.5,0.452,735.4,01.18,0.508
2016-09-21 01:40:00,1789E-3,5C000000,-0724,0826,12115,027.7,045.5,0.452,735.4,01.18,0.508
2016-09-21 01:41:00,1613E-3,5C000000,-0724,0826,12075,027.7,045.5,0.452,735.4,01.18,0.508
2016-09-21 01:42:00,1558E-3,5C000000,-0724,0826,12261,027.7,045.5,0.452,735.4,01.18,0.508
2016-09-21 01:43:00,1700E-3,5C000000,-0724,0825,12180,027.8,045.5,0.453,735.4,01.18,0.508
2016-09-21 01:44:00,1705E-3,5C000000,-0724,0826,12446,027.8,045.5,0.452,735.3,01.18,0.508
2016-09-21 01:45:00,1512E-3,5C000000,-0724,0826,12296,027.8,045.4,0.452,735.3,01.18,0.508
2016-09-21 01:46:00,1555E-3,5C000000,-0724,0826,12069,027.8,045.4,0.452,735.3,01.18,0.508
2016-09-21 01:47:00,1548E-3,5C000000,-0724,0825,12131,027.8,045.4,0.452,735.3,01.18,0.508
2016-09-21 01:48:00,1593E-3,5C000000,-0724,0826,12182,027.8,045.5,0.452,735.3,01.18,0.508
2016-09-21 01:49:00,1619E-3,5C000000,-0724,0826,12224,027.8,045.5,0.452,735.2,01.18,0.508
2016-09-21 01:50:00,1537E-3,5C000000,-0724,0825,12214,027.8,045.5,0.452,735.3,01.18,0.508
2016-09-21 01:51:00,1658E-3,5C000000,-0724,0826,12061,027.8,045.5,0.452,735.2,01.18,0.508
2016-09-21 01:52:00,1545E-3,5C000000,-0724,0826,12305,027.8,045.5,0.452,735.1,01.18,0.508
2016-09-21 01:53:00,1606E-3,5C000000,-0724,0825,12203,027.8,045.5,0.452,735.2,01.18,0.508
2016-09-21 01:54:00,1475E-3,5C000000,-0724,0825,12269,027.8,045.5,0.452,735.2,01.18,0.508
2016-09-21 01:55:00,1540E-3,5C000000,-0724,0826,12037,027.8,045.5,0.452,735.2,01.18,0.508
2016-09-21 01:56:00,1663E-3,5C000000,-0724,0825,12290,027.8,045.4,0.452,735.1,01.18,0.508
2016-09-21 01:57:00,1550E-3,5C000000,-0724,0826,12153,027.8,045.4,0.452,735.1,01.18,0.508
2016-09-21 01:58:00,1536E-3,5C000000,-0724,0826,12285,027.8,045.5,0.452,735.1,01.18,0.508
2016-09-21 01:59:00,1647E-3,5C000000,-0724,0826,12291,027.8,045.5,0.452,735.1,01.18,0.508
2016-09-21 02:00:00,1450E-3,5C000000,-0724,0825,12128,027.9,045.5,0.452,735.1,01.18,0.508
2016-09-21 02:01:00,1668E-3,5C000000,-0724,0826,12287,027.8,045.5,0.452,735.1,01.18,0.508
2016-09-21 02:02:00,1723E-3,5C000000,-0724,0826,12156,027.9,045.5,0.452,735.1,01.18,0.508
2016-09-21 02:03:00,1540E-3,5C000000,-0724,0826,12351,027.9,045.4,0.452,735.1,01.18,0.508
2016-09-21 02:04:00,1600E-3,5C000000,-0724,0825,12328,027.9,045.5,0.452,735.1,01.18,0.508
2016-09-21 02:05:00,1577E-3,5C000000,-0724,0826,12128,027.9,045.5,0.452,735.1,01.18,0.508
2016-09-21 02:06:00,1646E-3,5C000000,-0724,0825,12086,027.9,045.5,0.452,735.1,01.18,0.508
2016-09-21 02:07:00,1634E-3,5C000000,-0724,0826,12290,027.9,045.5,0.452,735.1,01.18,0.508
2016-09-21 02:08:00,1654E-3,5C000000,-0724,0827,12309,027.9,045.5,0.452,735.1,01.18,0.508
2016-09-21 02:09:00,1612E-3,5C000000,-0724,0826,12268,027.9,045.5,0.452,735.2,01.18,0.508
2016-09-21 02:10:00,1545E-3,5C000000,-0724,0826,12171,027.9,045.5,0.452,735.1,01.18,0.508
2016-09-21 02:11:00,1611E-3,5C000000,-0724,0826,12049,027.9,045.5,0.452,735.1,01.18,0.508
2016-09-21 02:12:00,1729E-3,5C000000,-0724,0825,12239,027.9,045.5,0.452,735.1,01.18,0.508
2016-09-21 02:13:00,1704E-3,5C000000,-0724,0826,12206,027.9,045.5,0.452,735.1,01.18,0.508
2016-09-21 02:14:00,1645E-3,5C000000,-0724,0826,12165,027.9,045.5,0.452,735.1,01.18,0.508
2016-09-21 02:15:00,1565E-3,5C000000,-0724,0825,12224,027.9,045.5,0.452,735.1,01.18,0.508
2016-09-21 02:16:00,1733E-3,5C000000,-0724,0826,12177,027.9,045.5,0.451,735.1,01.18,0.508
2016-09-21 02:17:00,1631E-3,5C000000,-0724,0825,12103,027.9,045.5,0.452,735.1,01.18,0.508
2016-09-21 02:18:00,1608E-3,5C000000,-0724,0825,12133,027.9,045.5,0.452,735.1,01.18,0.508
2016-09-21 02:19:00,1606E-3,5C000000,-0724,0825,12239,028.0,045.5,0.451,735.1,01.18,0.508
2016-09-21 02:20:00,1601E-3,5C000000,-0724,0826,12150,028.0,045.5,0.452,735.1,01.18,0.508
2016-09-21 02:21:00,1695E-3,5C000000,-0724,0826,12239,028.0,045.5,0.452,735.1,01.18,0.508
2016-09-21 02:22:00,1720E-3,5C000000,-0724,0825,12261,028.0,045.4,0.451,735.1,01.18,0.508
2016-09-21 02:23:00,1485E-3,5C000000,-0724,0825,12181,028.0,045.5,0.452,735.1,01.18,0.508
2016-09-21 02:24:00,1639E-3,5C000000,-0724,0827,12318,028.0,045.5,0.452,735.1,01.18,0.508
2016-09-21 02:25:00,1722E-3,5C000000,-0724,0826,12317,028.0,045.5,0.452,735.1,01.18,0.508
2016-09-21 02:26:00,1585E-3,5C000000,-0724,0826,12231,028.0,045.5,0.452,735.0,01.18,0.508
2016-09-21 02:27:00,1505E-3,5C000000,-0724,0826,12212,028.0,045.5,0.452,735.0,01.18,0.508
2016-09-21 02:28:00,1602E-3,5C000000,-0724,0826,12402,028.0,045.5,0.452,735.0,01.18,0.508
2016-09-21 02:29:00,1636E-3,5C000000,-0724,0826,12360,028.0,045.5,0.451,735.0,01.18,0.508
2016-09-21 02:30:00,1624E-3,5C000000,-0724,0825,12266,028.0,045.5,0.452,735.0,01.18,0.508
2016-09-21 02:31:00,1604E-3,5C000000,-0724,0826,12218,028.0,045.5,0.452,734.9,01.18,0.508
2016-09-21 02:32:00,1564E-3,5C000000,-0724,0825,12205,028.0,045.5,0.451,734.9,01.18,0.508
2016-09-21 02:33:00,1683E-3,5C000000,-0724,0826,12284,028.0,045.5,0.452,734.9,01.18,0.508
2016-09-21 02:34:00,1568E-3,5C000000,-0724,0825,12268,028.0,045.5,0.452,734.8,01.18,0.508
2016-09-21 02:35:00,1558E-3,5C000000,-0724,0827,12340,028.1,045.5,0.451,734.8,01.18,0.508
2016-09-21 02:36:00,1677E-3,5C000000,-0724,0826,12303,028.1,045.5,0.452,734.9,01.18,0.508
2016-09-21 02:37:00,1626E-3,5C000000,-0724,0826,12238,028.1,045.5,0.452,734.8,01.18,0.508
2016-09-21 02:38:00,1670E-3,5C000000,-0724,0826,12292,028.1,045.5,0.451,734.7,01.18,0.508
2016-09-21 02:39:00,1680E-3,5C000000,-0724,0826,12320,028.1,045.5,0.451,734.6,01.18,0.508
2016-09-21 02:40:00,1647E-3,5C000000,-0724,0826,12319,028.1,045.4,0.452,734.7,01.18,0.508
2016-09-21 02:41:00,1541E-3,5C000000,-0724,0826,12274,028.1,045.5,0.451,734.6,01.18,0.508
2016-09-21 02:42:00,1695E-3,5C000000,-0724,0825,12235,028.1,045.5,0.451,734.6,01.18,0.508
2016-09-21 02:43:00,1644E-3,5C000000,-0724,0827,12440,028.1,045.4,0.452,734.5,01.18,0.508
2016-09-21 02:44:00,1546E-3,5C000000,-0724,0827,12361,028.1,045.5,0.451,734.5,01.18,0.508
2016-09-21 02:45:00,1650E-3,5C000000,-0724,0825,12143,028.1,045.5,0.451,734.5,01.18,0.508
2016-09-21 02:46:00,1624E-3,5C000000,-0724,0826,12153,028.1,045.5,0.452,734.5,01.18,0.508
2016-09-21 02:47:00,1599E-3,5C000000,-0724,0826,12277,028.1,045.5,0.451,734.5,01.18,0.508
2016-09-21 02:48:00,1564E-3,5C000000,-0724,0826,12277,028.1,045.5,0.451,734.5,01.18,0.508
2016-09-21 02:49:00,1560E-3,5C000000,-0724,0826,12141,028.1,045.5,0.452,734.5,01.18,0.508
2016-09-21 02:50:00,1513E-3,5C000000,-0724,0825,12139,028.1,045.5,0.451,734.5,01.18,0.508
2016-09-21 02:51:00,1726E-3,5C000000,-0724,0826,12311,028.2,045.5,0.451,734.6,01.18,0.508
2016-09-21 02:52:00,1508E-3,5C000000,-0724,0826,12260,028.2,045.5,0.452,734.6,01.18,0.508
2016-09-21 02:53:00,1611E-3,5C000000,-0724,0826,12156,028.2,045.5,0.451,734.6,01.18,0.508
2016-09-21 02:54:00,1618E-3,5C000000,-0724,0826,12260,028.2,045.5,0.451,734.7,01.18,0.508
2016-09-21 02:55:00,1798E-3,5C000000,-0724,0826,12163,028.2,045.5,0.451,734.7,01.18,0.508
2016-09-21 02:56:00,1706E-3,5C000000,-0724,0825,12365,028.2,045.5,0.452,734.7,01.18,0.508
2016-09-21 02:57:00,1570E-3,5C000000,-0724,0826,12247,028.2,045.5,0.451,734.7,01.18,0.508
2016-09-21 02:58:00,1758E-3,5C000000,-0724,0827,12212,028.2,045.5,0.451,734.7,01.18,0.508
2016-09-21 02:59:00,1787E-3,5C000000,-0724,0826,12199,028.2,045.5,0.452,734.7,01.18,0.508
2016-09-21 03:00:00,1758E-3,5C000000,-0724,0825,12164,028.2,045.5,0.451,734.7,01.18,0.508
2016-09-21 03:01:00,1565E-3,5C000000,-0724,0825,12056,028.2,045.5,0.451,734.6,01.18,0.508
2016-09-21 03:02:00,1602E-3,5C000000,-0724,0827,12229,028.2,045.5,0.451,734.6,01.18,0.508
2016-09-21 03:03:00,1545E-3,5C000000,-0724,0826,12186,028.2,045.5,0.451,734.6,01.18,0.508
2016-09-21 03:04:00,1659E-3,5C000000,-0724,0826,12245,028.3,045.5,0.451,734.6,01.18,0.508
2016-09-21 03:05:00,1709E-3,5C000000,-0724,0826,12225,028.3,045.5,0.451,734.5,01.18,0.508
2016-09-21 03:06:00,1797E-3,5C000000,-0724,0827,12220,028.3,045.5,0.452,734.5,01.18,0.508
2016-09-21 03:07:00,1693E-3,5C000000,-0724,0826,12176,028.3,045.5,0.451,734.5,01.18,0.508
2016-09-21 03:08:00,1638E-3,5C000000,-0724,0827,12221,028.3,045.5,0.451,734.5,01.18,0.508
2016-09-21 03:09:00,1609E-3,5C000000,-0724,0826,12304,028.3,045.5,0.451,734.5,01.18,0.508
2016-09-21 03:10:00,1582E-3,5C000000,-0724,0826,12126,028.3,045.5,0.451,734.5,01.18,0.508
2016-09-21 03:11:00,1533E-3,5C000000,-0724,0826,12175,028.3,045.5,0.451,734.5,01.18,0.508
2016-09-21 03:12:00,1539E-3,5C000000,-0724,0826,12197,028.3,045.5,0.451,734.5,01.18,0.508
2016-09-21 03:13:00,1553E-3,5C000000,-0724,0826,12320,028.3,045.5,0.451,734.6,01.18,0.508
2016-09-21 03:14:00,1620E-3,5C000000,-0724,0826,12291,028.3,045.5,0.451,734.5,01.18,0.508
2016-09-21 03:15:00,1639E-3,5C000000,-0724,0827,12327,028.3,045.5,0.451,734.6,01.18,0.508
2016-09-21 03:16:00,1705E-3,5C000000,-0724,0827,12191,028.3,045.5,0.451,734.5,01.18,0.508
2016-09-21 03:17:00,1625E-3,5C000000,-0724,0826,12200,028.4,045.5,0.451,734.5,01.18,0.508
2016-09-21 03:18:00,1666E-3,5C000000,-0724,0825,12216,028.4,045.5,0.451,734.5,01.18,0.508
2016-09-21 03:19:00,1600E-3,5C000000,-0724,0826,12227,028.4,045.5,0.451,734.5,01.18,0.508
2016-09-21 03:20:00,1641E-3,5C000000,-0724,0825,12168,028.4,045.5,0.451,734.4,01.18,0.508
2016-09-21 03:21:00,1789E-3,5C000000,-0724,0826,12331,028.4,045.5,0.451,734.4,01.18,0.508
2016-09-21 03:22:00,1680E-3,5C000000,-0724,0826,12256,028.4,045.5,0.451,734.3,01.18,0.508
2016-09-21 03:23:00,1661E-3,5C000000,-0724,0826,12306,028.4,045.5,0.451,734.3,01.18,0.508
2016-09-21 03:24:00,1721E-3,5C000000,-0724,0826,12157,028.4,045.5,0.451,734.3,01.18,0.508
2016-09-21 03:25:00,1670E-3,5C000000,-0724,0826,12209,028.4,045.5,0.451,734.3,01.18,0.508
2016-09-21 03:26:00,1648E-3,5C000000,-0724,0827,12255,028.4,045.5,0.450,734.3,01.18,0.508
2016-09-21 03:27:00,1634E-3,5C000000,-0724,0827,12280,028.4,045.5,0.451,734.2,01.18,0.508
2016-09-21 03:28:00,1521E-3,5C000000,-0724,0826,12127,028.4,045.5,0.451,734.2,01.18,0.508
2016-09-21 03:29:00,1583E-3,5C000000,-0724,0826,12182,028.4,045.5,0.451,734.1,01.19,0.508
2016-09-21 03:30:00,1447E-3,5C000000,-0724,0826,12259,028.4,045.5,0.451,734.2,01.18,0.508
2016-09-21 03:31:00,1531E-3,5C000000,-0724,0827,12182,028.5,045.5,0.451,734.2,01.18,0.508
2016-09-21 03:32:00,1691E-3,5C000000,-0724,0826,12298,028.5,045.5,0.451,734.2,01.18,0.508
2016-09-21 03:33:00,1601E-3,5C000000,-0724,0826,12128,028.5,045.5,0.450,734.2,01.18,0.508
2016-09-21 03:34:00,1637E-3,5C000000,-0724,0826,12053,028.5,045.5,0.451,734.1,01.19,0.508
2016-09-21 03:35:00,1772E-3,5C000000,-0724,0827,12319,028.5,045.5,0.451,734.1,01.19,0.508
2016-09-21 03:36:00,1528E-3,5C000000,-0724,0826,12284,028.5,045.5,0.451,734.1,01.19,0.508
2016-09-21 03:37:00,1431E-3,5C000000,-0724,0825,12239,028.5,045.5,0.450,734.2,01.18,0.508
2016-09-21 03:38:00,1586E-3,5C000000,-0724,0826,12303,028.5,045.5,0.451,734.1,01.19,0.508
2016-09-21 03:39:00,1487E-3,5C000000,-0724,0826,12128,028.5,045.5,0.451,734.0,01.19,0.508
2016-09-21 03:40:00,1595E-3,5C000000,-0724,0827,12322,028.5,045.5,0.450,734.0,01.19,0.508
2016-09-21 03:41:00,1593E-3,5C000000,-0724,0826,12334,028.5,045.5,0.451,734.0,01.19,0.508
2016-09-21 03:42:00,1689E-3,5C000000,-0724,0826,12316,028.5,045.5,0.451,734.0,01.19,0.508
2016-09-21 03:43:00,1526E-3,5C000000,-0724,0826,12218,028.5,045.5,0.450,733.9,01.19,0.508
2016-09-21 03:44:00,1736E-3,5C000000,-0724,0826,11991,028.5,045.5,0.450,733.8,01.19,0.508
2016-09-21 03:45:00,1649E-3,5C000000,-0724,0826,12391,028.6,045.5,0.451,734.0,01.19,0.508
2016-09-21 03:46:00,1596E-3,5C000000,-0724,0826,12346,028.6,045.5,0.450,733.9,01.19,0.508
2016-09-21 03:47:00,1723E-3,5C000000,-0724,0826,12166,028.6,045.5,0.450,733.9,01.19,0.508
2016-09-21 03:48:00,1788E-3,5C000000,-0724,0825,12214,028.6,045.5,0.451,734.0,01.19,0.508
2016-09-21 03:49:00,1599E-3,5C000000,-0724,0826,12308,028.6,045.5,0.451,734.0,01.19,0.508
2016-09-21 03:50:00,1600E-3,5C000000,-0724,0826,12140,028.6,045.5,0.450,733.9,01.19,0.508
2016-09-21 03:51:00,1557E-3,5C000000,-0724,0826,12516,028.6,045.5,0.451,733.9,01.19,0.508
2016-09-21 03:52:00,1506E-3,5C000000,-0724,0825,12211,028.6,045.5,0.451,733.9,01.19,0.508
2016-09-21 03:53:00,1589E-3,5C000000,-0724,0825,12273,028.6,045.5,0.450,734.0,01.19,0.508
2016-09-21 03:54:00,1521E-3,5C000000,-0724,0826,12088,028.6,045.5,0.451,733.9,01.19,0.508
2016-09-21 03:55:00,1516E-3,5C000000,-0724,0826,12303,028.6,045.5,0.451,734.0,01.19,0.508
2016-09-21 03:56:00,1612E-3,5C000000,-0724,0826,12137,028.6,045.5,0.450,733.9,01.19,0.508
2016-09-21 03:57:00,1604E-3,5C000000,-0724,0826,12155,028.6,045.5,0.450,734.0,01.19,0.508
2016-09-21 03:58:00,1635E-3,5C000000,-0724,0825,12254,028.6,045.5,0.451,734.0,01.19,0.508
2016-09-21 03:59:00,1570E-3,5C000000,-0724,0826,12254,028.6,045.5,0.450,733.9,01.19,0.508
2016-09-21 04:00:00,1657E-3,5C000000,-0724,0826,12035,028.6,045.5,0.450,733.9,01.19,0.508
2016-09-21 04:01:00,1634E-3,5C000000,-0724,0826,12183,028.7,045.5,0.451,733.9,01.19,0.508
2016-09-21 04:02:00,1623E-3,5C000000,-0724,0827,12177,028.6,045.5,0.451,733.9,01.19,0.508
2016-09-21 04:03:00,1615E-3,5C000000,-0724,0826,12232,028.7,045.5,0.450,733.9,01.19,0.508
2016-09-21 04:04:00,1585E-3,5C000000,-0724,0826,12245,028.7,045.5,0.451,733.9,01.19,0.508
2016-09-21 04:05:00,1625E-3,5C000000,-0724,0826,12333,028.7,045.5,0.451,734.0,01.19,0.508
2016-09-21 04:06:00,1691E-3,5C000000,-0724,0826,12382,028.7,045.5,0.450,733.9,01.19,0.508
2016-09-21 04:07:00,1616E-3,5C000000,-0724,0827,12123,028.7,045.5,0.450,733.8,01.19,0.508
2016-09-21 04:08:00,1562E-3,5C000000,-0724,0826,12284,028.7,045.5,0.451,733.9,01.19,0.508
2016-09-21 04:09:00,1550E-3,5C000000,-0724,0826,12184,028.7,045.5,0.450,733.9,01.19,0.508
2016-09-21 04:10:00,1711E-3,5C000000,-0724,0826,12274,028.7,045.5,0.450,733.8,01.19,0.508
2016-09-21 04:11:00,1768E-3,5C000000,-0724,0826,12165,028.7,045.5,0.451,733.8,01.19,0.508
2016-09-21 04:12:00,1621E-3,5C000000,-0724,0826,12236,028.7,045.5,0.450,733.8,01.19,0.508
2016-09-21 04:13:00,1443E-3,5C000000,-0724,0826,12182,028.7,045.5,0.450,733.7,01.19,0.508
2016-09-21 04:14:00,1535E-3,5C000000,-0724,0826,12353,028.7,045.5,0.451,733.7,01.19,0.508
2016-09-21 04:15:00,1696E-3,5C000000,-0724,0826,12242,028.8,045.5,0.450,733.5,01.19,0.508
2016-09-21 04:16:00,1538E-3,5C000000,-0724,0826,12276,028.8,045.5,0.450,733.5,01.19,0.508
2016-09-21 04:17:00,1641E-3,5C000000,-0724,0826,12246,028.8,045.5,0.450,733.4,01.19,0.508
2016-09-21 04:18:00,1591E-3,5C000000,-0724,0826,12197,028.8,045.5,0.450,733.5,01.19,0.508
2016-09-21 04:19:00,1510E-3,5C000000,-0724,0827,12225,028.8,045.5,0.450,733.4,01.19,0.508
2016-09-21 04:20:00,1648E-3,5C000000,-0724,0826,12160,028.8,045.5,0.450,733.4,01.19,0.508